{"data":{"norad_id":60441,"epoch":"2026-09-21T16:31:04.623744Z","epoch_age_seconds":85763,"freshness":"FRESH","line1":"1 60441U 24144S   26264.68824796 -.00001032  00000+0 -19411-4 0  9997","line2":"2 60441  53.1600  22.0375 0001010  74.6720 285.4394 15.34393900119383","mean_motion":15.343939,"eccentricity":0.000101,"inclination_deg":53.16,"raan_deg":22.0375,"arg_perigee_deg":74.672,"mean_anomaly_deg":285.4394,"bstar":-1.9411e-5,"rev_number":11938,"period_min":93.84813117414,"perigee_km":462.03044405724,"apogee_km":463.41229744813,"semimajor_km":6840.8583707527,"source":"CELESTRAK","updated_at":"2026-09-22T09:00:49.236830Z"}}